Volver al catálogo

STARLINK-6244

ActivoComunicacionesVLEO
NORAD 56548·PAYLOAD·🇺🇸 United States

Lanzado May 14, 2023 desde Cape Canaveral Space Force Station

Loading…

Próximos Pases (próximas 24 horas)

TLE

ActualizadoSource: CelesTrak SupGP

Época: Sep 15, 2026, 02:58 UTC

1 56548C 23065AX  26258.12409722 -.00037728  00000+0 -13668-2 0  2586
2 56548  42.9999 234.0346 0001376 267.5482 338.5565 15.27590361    10

Sigue STARLINK-6244 en tiempo real con AllMySat

Download on the App Store